sat.trackr.live / text

‹ back to catalog

STARLINK-5774

NORAD 56029 · 2023-042AV

PAYLOAD ACTIVE UNKNOWN

§ Identity

Operator
Country
US
Launch date
2023-03-24
Launch site
AFETR
Launch vehicle
Mass (kg)
RCS (m²)

Purposes: comms

External: N2YO · Heavens-Above · Gunter

§ Orbital elements

Epoch: 2026-05-24T21:31:46.650144Z

Period
94.27 min
Inclination
43.0036°
Eccentricity
0.0001034
Mean motion
15.27565320 rev/d
Perigee alt
482.4 km
Apogee alt
483.8 km
Semi-major
6,861.2 km
B*
-1.8058e-5
RAAN
334.5679°
Arg perigee
261.5442°
Mean anomaly
98.5293°
Rev number
17,469

§ Raw data

STARLINK-57741 56029U 23042AV  26144.89706771 -.00000759  00000+0 -18058-4 0  99932 56029  43.0036 334.5679 0001034 261.5442  98.5293 15.27565320174698

JSON: /api/v1/satellites/56029 · /tle

For live sub-satellite position, see the globe view (requires WebGL).

§ Visibility from observer

Set your observer location to see the next 7 days of passes ≥ 10°. The values pass through the URL so the page stays shareable.

No JS? Fill the form by hand. The geolocation button needs JavaScript.